Weather History for Moab, UT

Change the Weather History Date:

Monday, December 30, 2013

  Actual Average Record
Temperature  
Mean Temperature 20 °F 25 °F  
Max Temperature 35 °F 36 °F 59 °F (1980)
Min Temperature 4 °F 14 °F -5 °F (2012)
Degree Days  
Heating Degree Days 45 40  
Month to date heating degree days 1517 1146  
Since 1 July heating degree days 2773 2355  
Cooling Degree Days 0 0  
Month to date cooling degree days 0 0  
Year to date cooling degree days 1643 1289  
Moisture  
Dew Point 13 °F    
Average Humidity 76    
Maximum Humidity 100    
Minimum Humidity 51    
Precipitation  
Precipitation 0.00 in 0.02 in 0.20 in (1935)
Month to date precipitation 0.62 0.57  
Year to date precipitation 7.37 8.77  
Sea Level Pressure  
Sea Level Pressure 30.49 in    
Wind  
Wind Speed 2 mph (WNW)    
Max Wind Speed 13 mph    
Max Gust Speed 14 mph    
Visibility 10 miles    
Events      
T = Trace of Precipitation, MM = Missing Value Source: NWS Daily Summary

Daily Weather History Graph

Daily Weather History Graph

Search for Another Location

Airport:

Trip Planner

Search our weather history database for the weather conditions in past years. The results will help you decide how hot, cold, wet, or windy it might be!

Date:

Astronomy

Dec. 30, 2013 Rise Set
Actual Time 7:36 AM MST 5:06 PM MST
Civil Twilight 7:07 AM MST 5:36 PM MST
Nautical Twilight 6:33 AM MST 6:09 PM MST
Astronomical Twilight 6:01 AM MST 6:42 PM MST
Moon 5:30 AM MST (12/30) 3:42 PM MST (12/30)
Length of Visible Light 10h 29m
Length of Day
9h 29m
Waning Crescent, 4% of the Moon is Illuminated
Dec 30
Waning Crescent
Jan 1
New
Jan 7
First Quarter
Jan 15
Full
Jan 23
Last Quarter

Hourly Weather History & Observations

Time (MST) Temp. Windchill Dew Point Humidity Pressure Visibility Wind Dir Wind Speed Gust Speed Precip Events Conditions
12:53 AM 16.0 °F - 12.9 °F 88% 30.37 in 10.0 mi Calm Calm - N/A   Clear
1:53 AM 10.9 °F - 8.1 °F 88% 30.40 in 10.0 mi Calm Calm - N/A   Clear
2:53 AM 6.1 °F - 3.9 °F 91% 30.42 in 10.0 mi Calm Calm - N/A   Clear
3:53 AM 9.0 °F - 8.1 °F 96% 30.43 in 10.0 mi Calm Calm - N/A   Clear
4:53 AM 14.0 °F 6.5 °F 12.0 °F 92% 30.43 in 10.0 mi West 4.6 mph - N/A   Clear
5:53 AM 12.9 °F - 9.0 °F 84% 30.46 in 10.0 mi Calm Calm - N/A   Clear
6:53 AM 10.9 °F - 8.1 °F 88% 30.52 in 10.0 mi Calm Calm - N/A   Clear
7:53 AM 8.1 °F - 5.0 °F 87% 30.56 in 10.0 mi Calm Calm - N/A   Clear
8:53 AM 12.0 °F 5.9 °F 9.0 °F 88% 30.56 in 10.0 mi WSW 3.5 mph - N/A   Clear
9:53 AM 18.0 °F - 14.0 °F 84% 30.56 in 10.0 mi Calm Calm - N/A   Clear
10:53 AM 25.0 °F - 17.1 °F 72% 30.54 in 10.0 mi Calm Calm - N/A   Clear
11:53 AM 28.9 °F - 18.0 °F 64% 30.52 in 10.0 mi Calm Calm - N/A   Clear
12:53 PM 34.0 °F - 17.1 °F 50% 30.45 in 10.0 mi Calm Calm - N/A   Clear
1:53 PM 27.0 °F 18.7 °F 21.9 °F 81% 30.48 in 10.0 mi NW 8.1 mph - N/A   Clear
2:53 PM 27.0 °F 18.0 °F 19.9 °F 75% 30.49 in 10.0 mi NW 9.2 mph - N/A   Clear
3:53 PM 27.0 °F 18.0 °F 19.9 °F 75% 30.48 in 10.0 mi NW 9.2 mph - N/A   Clear
4:53 PM 23.0 °F 13.1 °F 18.0 °F 81% 30.47 in 10.0 mi NW 9.2 mph - N/A   Clear
5:53 PM 18.0 °F 7.7 °F 15.1 °F 88% 30.50 in 10.0 mi NW 8.1 mph - N/A   Clear
6:53 PM 17.1 °F - 14.0 °F 88% 30.52 in 10.0 mi Calm Calm - N/A   Clear
7:53 PM 16.0 °F - 12.0 °F 84% 30.55 in 10.0 mi Calm Calm - N/A   Clear
8:53 PM 14.0 °F - 12.0 °F 92% 30.55 in 10.0 mi Calm Calm - N/A   Clear
9:53 PM 12.0 °F - 10.9 °F 95% 30.53 in 10.0 mi Calm Calm - N/A   Clear
10:53 PM 18.0 °F - 15.1 °F 88% 30.48 in 10.0 mi Calm Calm - N/A   Clear
11:53 PM 16.0 °F - 12.9 °F 88% 30.46 in 10.0 mi Calm Calm - N/A   Clear